Погода Кировский

Погода Кировский : погода сейчас, прогноз погоды и архив. Всё, что Вы хотите узнать о погоде Кировский!

Хотите узнать прогноз погоды Кировский? Тогда Вам сюда: Погода Кировский

Поиск расширенной информации на нашем сайте:

Другие новости

Новости СМИ2

Главная страница сайта

Новости сайта

03.07.2017

Напоминаем, что на нашем специализированном сайте Метеоцентр.Азия вы можете получить высокодетализированные автоматические прогнозы погоды по пунктам России, СНГ и мира в авиационном формате (включающие направление и скорость ветра, видимость, явления погоды, количество и форму облачности, нижнюю и верхнюю границу облачности).


Погода Кировский - сегодня

Время (UTC), дата Ветер
(°,м/с) 
Видим.   Явления Облачность Т
(°С)
Тd
(°С)
f(%) Тe
(°С)
Pmin
(гПа)
dP
(гПа)
Po
(мм)
O2
(г/м3)
Тmin Tmax R s Состояние
почвы
06 09.12.17 200 (Ю) 20000 м    4/0 верхняя 
[Ci fib]
-12.9 -21.7 48 -13  1017  -0.2  753  320           
09 09.12.17 150 (ЮВ) 20000 м    10/0 средняя, верхняя 
[Ac trans|Ci fib]
-15.5 -21.8 58 -16  1018.4  1.3  754  324    -12.8       
12 09.12.17 120 (ЮВ) 20000 м    3/0 верхняя 
[Ci fib]
-18.9 -22.1 76 -19  1018.1  -0.4  754  328           
15 09.12.17 170 (Ю) 20000 м    4/0 верхняя 
[Ci sp]
-17.9 -22.3 68 -18  1017.5  -0.6  753  326           
18 09.12.17 тихо ()   20000 м    10/0 верхняя 
[Cs]
-17 -21.4 69 -17  1015.9  -1.5  752  325           
00 10.12.17 180 (Ю) 4000 м  слаб. снег  10/10 600 м 
[Ns]
-13.2 -15.8 81 -13  1012.8  -0.3  750  319           
03 10.12.17 320 (СЗ) 4000 м  слаб. снег  10/10 600 м 
[Ns]
-8.7 -11.2 82 -8  1010.7  -1.8  749  313           
06 10.12.17 200 (Ю) 4000 м  слаб. снег  10/10 600 м 
[Ns]
-8.8 -10.7 86 -9  1010.3  -0.4  748  313           
09 10.12.17 010 (С) 4000 м  слаб. снег  10/10 600 м 
[Ns]
-12 -13.9 86 -12  1011.9  1.4  749  317    -8.2     
12 10.12.17 350 (С) 4000 м  слаб. снег  10/10 600 м 
[Ns]
-13.4 -15.5 84 -17  1012  749  319           
15 10.12.17 320 (СЗ) 4000 м  слаб. снег  10/10 600 м 
[Ns]
-15.3 -17.6 83 -19  1012.2  749  321           
18 10.12.17 340 (С) 4000 м  слаб. снег  10/10 600 м 
[Ns]
-16.9 -19.4 81 -21  1011.4  -0.8  749  323           
21 10.12.17 320 (СЗ) 2000 м  снег  10/10 600 м 
[Ns]
-17.8 -20.3 81 -23  1010.8  -0.6  748  324  -17.8    16  равномерный
сухой снег
100% 
00 11.12.17 310 (СЗ) 4000 м  слаб. снег  10/10 600 м 
[Ns]
-17.2 -19.8 80 -22  1010  -0.7  748  323           
03 11.12.17 260 (З) 4000 м  слаб. снег  10/0 средняя 
[As op]
-18 -20.7 79 -23  1008.3  -1.8  746  324           
06 11.12.17 280 (З) 4000 м  слаб. снег  10/0 средняя 
[As op]
-17.8 -20.6 79 -22  1007.4  -0.8  746  323           
09 11.12.17 280 (З) 4000 м  слаб. снег  10/0 средняя 
[As op]
-18.1 -20.9 79 -23  1007.4  -0.1  746  323    -17.2     
12 11.12.17 280 (З) 4000 м  слаб. снег  10/10 600 м 
[Ns]
-17.5 -20 81 -23  1007.3  746  323           
15 11.12.17 280 (З) 6{12}  4000 м  слаб. снег  10/0 средняя 
[As op]
-17.9 -21.1 76 -25  1008.6  1.2  747  324           
18 11.12.17 280 (З) 6-13{13}  4000 м  слаб. снег  10/0 средняя 
[As op]
-17.6 -20.8 76 -24  1010.2  1.5  748  324           
21 11.12.17 290 (З) 4{13}  4000 м  слаб. снег  10/0 средняя 
[As op]
-17.6 -20.7 77 -23  1011.5  1.3  749  324  -18.1    17  равномерный
сухой снег
100% 
00 12.12.17 280 (З) 4000 м  слаб. снег  10/0 средняя 
[As op]
-17.1 -20.1 77 -21  1014.1  2.6  751  324           
03 12.12.17 290 (З) 4000 м  слаб. снег  10/0 средняя 
[As op]
-15.9 -19.4 74 -22  1015  0.9  751  323           
06 12.12.17 300 (СЗ) 4{10}  4000 м  слаб. снег  10/0 средняя 
[As op]
-15.9 -19.3 75 -21  1017.4  2.4  753  324           
09 12.12.17 270 (З) 10 км  слаб. снег  10/0 средняя 
[Ac As]
-16.9 -20.8 72 -22  1019.8  2.2  755  326    -15.7     
Время (UTC), дата Ветер
(°,м/с) 
Видим.   Явления Облачность Т
(°С)
Тd
(°С)
f(%) Тe
(°С)
Pmin
(гПа)
dP
(гПа)
Po
(мм)
O2
(г/м3)
Тmin Tmax R s Состояние
почвы

Для получения пояснительной информации подведите курсор к названию столбца.

ПОГОДА Кировский - архив

Всё, что Вы хотите узнать о погоде Кировский - удобно и подробно!

Выберите нужную дату (начиная с 1 января 2015* года) и нажмите кнопку "Найти".
Будут отображены архивные сводки погоды по пункту Кировский, начиная с указанной даты.


Отображать данные в формате CSV (для использования в таблицах Excel)


Внимание! Наш архив погоды предназначен исключительно для личного некоммерческого использования в познавательных целях. Если Вам необходимы официальные справки о состоянии погоды (для производственных, юридических, коммерческих и т.п. целей), обращайтесь в органы Росгидромета.

*Примечание: данная дата относится к архиву по метеостанциям СССР (Россия, СНГ, Балтия).
Архив по метеостанциям Зарубежной Европы и Азии (кроме Китая) хранится 10 дней, по другим регионам земного шара (Китай, Африка, Америка, Австралия, Океания) - 1 день.

Кировский - район местоположения метеостанции


Название, широта, долгота, высота метеостанции:
Кировский 45.1°ш. 133.5°д. 98 м над ур. моря [Российская Федерация]

Дополнительная информация

В oтличие oт бoльшинства пoгoдных сайтoв мы публикуем пoдрoбную метеoинфoрмацию в детальнoм прoфессиoнальнoм фoрмате.

Характеристики температуры и влажнoсти вoздуха измеряются на высoте 2 м в тени вдали oт зданий и деревьев.
Скoрoсть ветра измеряется на высoте 10 м (на урoвне рoста челoвека скoрoсть ветра ниже в 1.5-2 раза). Если метеoстанция нахoдится в гoрoде или в лесу, тo скoрoсть ветра занижена на 2-4 м/с пo сравнению с oткрытым местoм. Скoрoсть ветра над акватoриями крупных рек и oзёр, а также на вершинах хoлмoв на 2-5 м/с выше, чем в oбычных услoвиях.
Атмoсфернoе давление в разных тoчках местнoсти мoжет значительнo oтличаться oт давления на метеoстанции, в зависимoсти oт услoвий рельефа (при пoдъёме на 10 м давление пoнижается примернo на 1 мм рт.ст.).